Time,TemperatureF,DewpointF,PressureIn,WindDirection,WindDirectionDegrees,WindSpeedMPH,WindSpeedGustMPH,Humidity,HourlyPrecipIn,Conditions,Clouds,dailyrainin,SoftwareType,DateUTC
2013-05-01 00:02:00,65.4,59.4,29.90,SSE,157,1.0,1.0,81,0.00,,,0.00,Wunderground v.1.15,2013-05-01 05:02:00,
2013-05-01 00:12:00,64.8,59.2,29.90,SSE,157,1.0,1.0,82,0.00,,,0.00,Wunderground v.1.15,2013-05-01 05:12:00,
2013-05-01 00:22:00,64.4,59.1,29.90,SSE,157,0.0,0.0,83,0.00,,,0.00,Wunderground v.1.15,2013-05-01 05:22:00,
2013-05-01 00:32:00,64.1,59.2,29.91,SSE,157,0.0,0.0,84,0.00,,,0.00,Wunderground v.1.15,2013-05-01 05:32:00,
2013-05-01 00:42:00,63.7,58.8,29.91,SSE,157,0.0,0.0,84,0.00,,,0.00,Wunderground v.1.15,2013-05-01 05:42:00,
2013-05-01 00:52:00,63.5,58.9,29.91,SSE,158,1.0,1.0,85,0.00,,,0.00,Wunderground v.1.15,2013-05-01 05:52:00,
2013-05-01 01:02:00,63.3,58.7,29.91,SSE,158,0.0,7.0,85,0.00,,,0.00,Wunderground v.1.15,2013-05-01 06:02:00,
2013-05-01 01:12:00,62.5,58.3,29.91,SSE,158,0.0,0.0,86,0.00,,,0.00,Wunderground v.1.15,2013-05-01 06:12:00,
2013-05-01 01:22:00,62.1,58.2,29.91,SSE,158,0.0,0.0,87,0.00,,,0.00,Wunderground v.1.15,2013-05-01 06:22:00,
2013-05-01 01:32:00,61.7,58.1,29.91,SSE,158,0.0,0.0,88,0.00,,,0.00,Wunderground v.1.15,2013-05-01 06:32:00,
2013-05-01 01:42:00,61.4,57.8,29.91,SSE,158,0.0,0.0,88,0.00,,,0.00,Wunderground v.1.15,2013-05-01 06:42:00,
2013-05-01 01:52:00,60.6,57.3,29.92,SSE,158,0.0,0.0,89,0.00,,,0.00,Wunderground v.1.15,2013-05-01 06:52:00,
2013-05-01 02:02:00,60.5,57.6,29.92,SSE,158,0.0,4.0,90,0.00,,,0.00,Wunderground v.1.15,2013-05-01 07:02:00,
2013-05-01 02:12:00,60.4,57.5,29.92,SSE,158,0.0,0.0,90,0.00,,,0.00,Wunderground v.1.15,2013-05-01 07:12:00,
2013-05-01 02:22:00,60.0,57.4,29.92,SSE,158,0.0,0.0,91,0.00,,,0.00,Wunderground v.1.15,2013-05-01 07:22:00,
2013-05-01 02:32:00,60.0,57.4,29.92,SSE,158,1.0,1.0,91,0.00,,,0.00,Wunderground v.1.15,2013-05-01 07:32:00,
2013-05-01 02:42:00,60.1,57.5,29.92,SSE,158,0.0,0.0,91,0.00,,,0.00,Wunderground v.1.15,2013-05-01 07:42:00,
2013-05-01 02:52:00,60.0,57.4,29.92,SSE,158,0.0,2.0,91,0.00,,,0.00,Wunderground v.1.15,2013-05-01 07:52:00,
2013-05-01 03:02:00,59.8,57.2,29.93,SSE,158,1.0,1.0,91,0.00,,,0.00,Wunderground v.1.15,2013-05-01 08:02:00,
2013-05-01 03:12:00,59.6,57.3,29.93,SSE,158,0.0,0.0,92,0.00,,,0.00,Wunderground v.1.15,2013-05-01 08:12:00,
2013-05-01 03:22:00,59.5,57.2,29.93,SSE,158,1.0,1.0,92,0.00,,,0.00,Wunderground v.1.15,2013-05-01 08:22:00,
2013-05-01 03:32:00,59.4,57.1,29.94,SSE,158,0.0,0.0,92,0.00,,,0.00,Wunderground v.1.15,2013-05-01 08:32:00,
2013-05-01 03:42:00,59.4,57.1,29.94,SSE,158,0.0,2.0,92,0.00,,,0.00,Wunderground v.1.15,2013-05-01 08:42:00,
2013-05-01 03:52:00,59.3,57.0,29.95,SSE,158,2.0,3.0,92,0.00,,,0.00,Wunderground v.1.15,2013-05-01 08:52:00,
2013-05-01 04:02:00,59.4,57.1,29.95,SE,143,3.0,3.0,92,0.00,,,0.00,Wunderground v.1.15,2013-05-01 09:02:00,
2013-05-01 04:12:00,59.6,57.3,29.95,SE,140,2.0,4.0,92,0.00,,,0.00,Wunderground v.1.15,2013-05-01 09:12:00,
2013-05-01 04:22:00,59.5,57.2,29.95,SE,130,2.0,2.0,92,0.00,,,0.00,Wunderground v.1.15,2013-05-01 09:22:00,
2013-05-01 04:32:00,59.5,57.2,29.95,SE,141,1.0,5.0,92,0.00,,,0.00,Wunderground v.1.15,2013-05-01 09:32:00,
2013-05-01 04:42:00,59.3,57.0,29.96,SSE,150,2.0,2.0,92,0.00,,,0.00,Wunderground v.1.15,2013-05-01 09:42:00,
2013-05-01 04:52:00,59.0,56.7,29.96,SSE,150,1.0,1.0,92,0.00,,,0.00,Wunderground v.1.15,2013-05-01 09:52:00,
2013-05-01 05:02:00,59.0,57.0,29.96,SSE,150,1.0,6.0,93,0.00,,,0.00,Wunderground v.1.15,2013-05-01 10:02:00,
2013-05-01 05:12:00,59.0,57.0,29.96,SSE,152,1.0,1.0,93,0.00,,,0.00,Wunderground v.1.15,2013-05-01 10:12:00,
2013-05-01 05:22:00,59.0,57.0,29.96,SSE,149,1.0,1.0,93,0.00,,,0.00,Wunderground v.1.15,2013-05-01 10:22:00,
2013-05-01 05:32:00,59.0,57.0,29.96,SSE,149,2.0,2.0,93,0.00,,,0.00,Wunderground v.1.15,2013-05-01 10:32:00,
2013-05-01 05:42:00,59.0,57.0,29.97,SSE,165,2.0,3.0,93,0.00,,,0.00,Wunderground v.1.15,2013-05-01 10:42:00,
2013-05-01 05:52:00,59.0,57.0,29.97,SSE,155,1.0,1.0,93,0.00,,,0.00,Wunderground v.1.15,2013-05-01 10:52:00,
2013-05-01 06:02:00,59.0,57.0,29.98,SE,128,1.0,6.0,93,0.00,,,0.00,Wunderground v.1.15,2013-05-01 11:02:00,
2013-05-01 06:12:00,59.0,57.0,29.98,SE,143,2.0,2.0,93,0.00,,,0.00,Wunderground v.1.15,2013-05-01 11:12:00,
2013-05-01 06:22:00,59.0,57.0,29.98,SE,143,1.0,1.0,93,0.00,,,0.00,Wunderground v.1.15,2013-05-01 11:22:00,
2013-05-01 06:32:00,59.0,57.0,29.98,SE,143,0.0,2.0,93,0.00,,,0.00,Wunderground v.1.15,2013-05-01 11:32:00,
2013-05-01 06:42:00,59.4,57.4,29.98,SE,143,1.0,1.0,93,0.00,,,0.00,Wunderground v.1.15,2013-05-01 11:42:00,
2013-05-01 06:52:00,59.9,57.9,29.99,SE,143,0.0,0.0,93,0.00,,,0.00,Wunderground v.1.15,2013-05-01 11:52:00,
2013-05-01 07:02:00,60.7,58.7,29.99,SE,143,0.0,6.0,93,0.00,,,0.00,Wunderground v.1.15,2013-05-01 12:02:00,
2013-05-01 07:12:00,61.5,59.2,29.99,SSE,164,0.0,0.0,92,0.00,,,0.00,Wunderground v.1.15,2013-05-01 12:12:00,
2013-05-01 07:22:00,62.3,59.6,30.00,SSE,165,1.0,1.0,91,0.00,,,0.00,Wunderground v.1.15,2013-05-01 12:22:00,
2013-05-01 07:32:00,63.3,60.3,30.00,South,177,1.0,1.0,90,0.00,,,0.00,Wunderground v.1.15,2013-05-01 12:32:00,
2013-05-01 07:42:00,64.3,61.0,30.00,SE,140,2.0,2.0,89,0.00,,,0.00,Wunderground v.1.15,2013-05-01 12:42:00,
2013-05-01 07:52:00,65.3,61.3,30.01,SSE,155,2.0,2.0,87,0.00,,,0.00,Wunderground v.1.15,2013-05-01 12:52:00,
2013-05-01 08:02:00,66.2,61.9,30.01,SSE,166,3.0,3.0,86,0.00,,,0.00,Wunderground v.1.15,2013-05-01 13:02:00,
2013-05-01 08:12:00,66.8,61.5,30.01,South,180,3.0,3.0,83,0.00,,,0.00,Wunderground v.1.15,2013-05-01 13:12:00,
2013-05-01 08:22:00,67.7,62.0,30.01,South,180,2.0,3.0,82,0.00,,,0.00,Wunderground v.1.15,2013-05-01 13:22:00,
2013-05-01 08:32:00,68.8,62.7,30.01,South,170,3.0,3.0,81,0.00,,,0.00,Wunderground v.1.15,2013-05-01 13:32:00,
2013-05-01 08:42:00,69.7,62.9,30.01,South,185,3.0,6.0,79,0.00,,,0.00,Wunderground v.1.15,2013-05-01 13:42:00,
2013-05-01 08:52:00,70.4,62.8,30.01,South,182,4.0,4.0,77,0.00,,,0.00,Wunderground v.1.15,2013-05-01 13:52:00,
2013-05-01 09:02:00,71.0,63.1,30.02,South,186,3.0,8.0,76,0.00,,,0.00,Wunderground v.1.15,2013-05-01 14:02:00,
2013-05-01 09:12:00,71.3,63.0,30.02,SSW,196,4.0,4.0,75,0.00,,,0.00,Wunderground v.1.15,2013-05-01 14:12:00,
2013-05-01 09:22:00,72.2,63.1,30.02,SW,215,3.0,6.0,73,0.00,,,0.00,Wunderground v.1.15,2013-05-01 14:22:00,
2013-05-01 09:32:00,72.9,63.3,30.02,SSE,167,4.0,4.0,72,0.00,,,0.00,Wunderground v.1.15,2013-05-01 14:32:00,
2013-05-01 09:42:00,73.7,64.5,30.02,SSW,194,4.0,4.0,73,0.00,,,0.00,Wunderground v.1.15,2013-05-01 14:42:00,
2013-05-01 09:52:00,74.1,63.7,30.03,South,175,5.0,5.0,70,0.00,,,0.00,Wunderground v.1.15,2013-05-01 14:52:00,
2013-05-01 10:02:00,75.4,64.5,30.03,SSE,153,3.0,3.0,69,0.00,,,0.00,Wunderground v.1.15,2013-05-01 15:02:00,
2013-05-01 10:12:00,75.9,62.8,30.03,SE,146,3.0,6.0,64,0.00,,,0.00,Wunderground v.1.15,2013-05-01 15:12:00,
2013-05-01 10:22:00,76.6,64.4,30.03,South,173,3.0,3.0,66,0.00,,,0.00,Wunderground v.1.15,2013-05-01 15:22:00,
2013-05-01 10:32:00,77.8,63.7,30.03,SSW,200,3.0,7.0,62,0.00,,,0.00,Wunderground v.1.15,2013-05-01 15:32:00,
2013-05-01 10:42:00,78.7,64.1,30.03,South,184,5.0,7.0,61,0.00,,,0.00,Wunderground v.1.15,2013-05-01 15:42:00,
2013-05-01 10:52:00,78.8,58.6,30.03,SSE,168,6.0,6.0,50,0.00,,,0.00,Wunderground v.1.15,2013-05-01 15:52:00,
2013-05-01 11:02:00,79.3,59.0,30.03,South,175,4.0,4.0,50,0.00,,,0.00,Wunderground v.1.15,2013-05-01 16:02:00,
2013-05-01 11:12:00,79.1,58.3,30.03,SSW,199,6.0,7.0,49,0.00,,,0.00,Wunderground v.1.15,2013-05-01 16:12:00,
2013-05-01 11:22:00,79.4,61.8,30.03,SW,223,6.0,6.0,55,0.00,,,0.00,Wunderground v.1.15,2013-05-01 16:22:00,
2013-05-01 11:32:00,79.8,59.5,30.02,WSW,254,6.0,6.0,50,0.00,,,0.00,Wunderground v.1.15,2013-05-01 16:32:00,
2013-05-01 11:42:00,80.2,58.7,30.02,SSW,194,5.0,9.0,48,0.00,,,0.00,Wunderground v.1.15,2013-05-01 16:42:00,
2013-05-01 11:52:00,80.0,57.4,30.02,South,183,6.0,6.0,46,0.00,,,0.00,Wunderground v.1.15,2013-05-01 16:52:00,
2013-05-01 12:02:00,80.7,59.8,30.02,South,188,5.0,14.0,49,0.00,,,0.00,Wunderground v.1.15,2013-05-01 17:02:00,
2013-05-01 12:12:00,80.7,59.8,30.02,South,181,7.0,7.0,49,0.00,,,0.00,Wunderground v.1.15,2013-05-01 17:12:00,
2013-05-01 12:22:00,80.9,59.4,30.01,SSW,213,6.0,6.0,48,0.00,,,0.00,Wunderground v.1.15,2013-05-01 17:22:00,
2013-05-01 12:32:00,80.8,59.3,30.01,SE,145,5.0,12.0,48,0.00,,,0.00,Wunderground v.1.15,2013-05-01 17:32:00,
2013-05-01 12:42:00,81.4,59.2,30.01,South,185,5.0,6.0,47,0.00,,,0.00,Wunderground v.1.15,2013-05-01 17:42:00,
2013-05-01 12:52:00,81.1,57.1,30.01,South,190,5.0,5.0,44,0.00,,,0.00,Wunderground v.1.15,2013-05-01 17:52:00,
2013-05-01 13:02:00,81.7,60.1,30.01,SE,144,7.0,16.0,48,0.00,,,0.00,Wunderground v.1.15,2013-05-01 18:02:00,
2013-05-01 13:12:00,81.6,58.8,30.01,ESE,121,6.0,9.0,46,0.00,,,0.00,Wunderground v.1.15,2013-05-01 18:12:00,
2013-05-01 13:22:00,81.7,59.5,30.01,SSW,213,7.0,7.0,47,0.00,,,0.00,Wunderground v.1.15,2013-05-01 18:22:00,
2013-05-01 13:32:00,82.1,59.9,30.01,SE,131,5.0,8.0,47,0.00,,,0.00,Wunderground v.1.15,2013-05-01 18:32:00,
2013-05-01 13:42:00,82.4,57.7,30.01,South,182,6.0,6.0,43,0.00,,,0.00,Wunderground v.1.15,2013-05-01 18:42:00,
2013-05-01 13:52:00,82.1,57.4,30.01,SSW,206,6.0,6.0,43,0.00,,,0.00,Wunderground v.1.15,2013-05-01 18:52:00,
2013-05-01 14:02:00,82.4,57.7,30.01,ESE,110,6.0,16.0,43,0.00,,,0.00,Wunderground v.1.15,2013-05-01 19:02:00,
2013-05-01 14:12:00,82.9,59.4,30.01,South,190,6.0,7.0,45,0.00,,,0.00,Wunderground v.1.15,2013-05-01 19:12:00,
2013-05-01 14:22:00,83.1,59.6,30.01,SSE,166,6.0,10.0,45,0.00,,,0.00,Wunderground v.1.15,2013-05-01 19:22:00,
2013-05-01 14:32:00,82.8,61.7,30.01,SSW,205,7.0,7.0,49,0.00,,,0.00,Wunderground v.1.15,2013-05-01 19:32:00,
2013-05-01 14:42:00,82.8,60.5,30.01,SSW,198,5.0,9.0,47,0.00,,,0.00,Wunderground v.1.15,2013-05-01 19:42:00,
2013-05-01 14:52:00,82.7,60.4,30.01,South,186,7.0,7.0,47,0.00,,,0.00,Wunderground v.1.15,2013-05-01 19:52:00,
2013-05-01 15:02:00,82.7,59.2,30.01,ESE,113,6.0,6.0,45,0.00,,,0.00,Wunderground v.1.15,2013-05-01 20:02:00,
2013-05-01 15:12:00,83.2,58.4,30.01,South,172,5.0,8.0,43,0.00,,,0.00,Wunderground v.1.15,2013-05-01 20:12:00,
2013-05-01 15:22:00,83.5,61.7,30.01,SSW,207,6.0,7.0,48,0.00,,,0.00,Wunderground v.1.15,2013-05-01 20:22:00,
2013-05-01 15:32:00,82.3,58.8,30.01,SSW,194,6.0,7.0,45,0.00,,,0.00,Wunderground v.1.15,2013-05-01 20:32:00,
2013-05-01 15:42:00,82.8,61.7,30.01,South,171,7.0,7.0,49,0.00,,,0.00,Wunderground v.1.15,2013-05-01 20:42:00,
2013-05-01 15:52:00,82.3,58.8,30.01,South,186,7.0,12.0,45,0.00,,,0.00,Wunderground v.1.15,2013-05-01 20:52:00,
2013-05-01 16:02:00,82.2,58.7,30.01,South,186,7.0,7.0,45,0.00,,,0.00,Wunderground v.1.15,2013-05-01 21:02:00,
2013-05-01 16:12:00,82.7,58.6,30.01,SE,133,6.0,6.0,44,0.00,,,0.00,Wunderground v.1.15,2013-05-01 21:12:00,
2013-05-01 16:22:00,82.5,59.6,30.01,South,190,6.0,6.0,46,0.00,,,0.00,Wunderground v.1.15,2013-05-01 21:22:00,
2013-05-01 16:32:00,83.3,59.7,30.01,SSE,157,5.0,5.0,45,0.00,,,0.00,Wunderground v.1.15,2013-05-01 21:32:00,
2013-05-01 16:42:00,82.5,60.8,30.01,SSW,202,7.0,8.0,48,0.00,,,0.00,Wunderground v.1.15,2013-05-01 21:42:00,
2013-05-01 16:52:00,82.4,58.9,30.00,South,187,7.0,7.0,45,0.00,,,0.00,Wunderground v.1.15,2013-05-01 21:52:00,
2013-05-01 17:02:00,82.3,56.9,30.00,South,177,8.0,16.0,42,0.00,,,0.00,Wunderground v.1.15,2013-05-01 22:02:00,
2013-05-01 17:12:00,82.3,56.2,30.00,South,187,7.0,7.0,41,0.00,,,0.00,Wunderground v.1.15,2013-05-01 22:12:00,
2013-05-01 17:22:00,82.3,58.8,30.00,SSW,192,6.0,8.0,45,0.00,,,0.00,Wunderground v.1.15,2013-05-01 22:22:00,
2013-05-01 17:32:00,82.0,57.9,30.00,South,184,7.0,7.0,44,0.00,,,0.00,Wunderground v.1.15,2013-05-01 22:32:00,
2013-05-01 17:42:00,81.5,56.8,30.00,SSE,150,8.0,9.0,43,0.00,,,0.00,Wunderground v.1.15,2013-05-01 22:42:00,
2013-05-01 17:52:00,81.4,58.0,30.00,South,186,6.0,7.0,45,0.00,,,0.00,Wunderground v.1.15,2013-05-01 22:52:00,
2013-05-01 18:02:00,81.2,58.5,30.00,SSE,158,7.0,7.0,46,0.00,,,0.00,Wunderground v.1.15,2013-05-01 23:02:00,
2013-05-01 18:12:00,80.6,57.3,30.00,SSW,193,6.0,6.0,45,0.00,,,0.00,Wunderground v.1.15,2013-05-01 23:12:00,
2013-05-01 18:22:00,80.0,58.5,30.01,SSE,150,6.0,6.0,48,0.00,,,0.00,Wunderground v.1.15,2013-05-01 23:22:00,
2013-05-01 18:32:00,79.5,59.2,30.01,SSE,149,5.0,6.0,50,0.00,,,0.00,Wunderground v.1.15,2013-05-01 23:32:00,
2013-05-01 18:42:00,78.8,58.6,30.01,SSE,161,4.0,4.0,50,0.00,,,0.00,Wunderground v.1.15,2013-05-01 23:42:00,
2013-05-01 18:52:00,78.7,58.5,30.01,SSW,207,4.0,7.0,50,0.00,,,0.00,Wunderground v.1.15,2013-05-01 23:52:00,
2013-05-01 19:02:00,78.5,59.4,30.01,South,188,5.0,5.0,52,0.00,,,0.00,Wunderground v.1.15,2013-05-02 00:02:00,
2013-05-01 19:12:00,78.6,60.0,30.01,SSW,207,4.0,7.0,53,0.00,,,0.00,Wunderground v.1.15,2013-05-02 00:12:00,
2013-05-01 19:22:00,78.0,60.0,30.01,SSW,194,3.0,4.0,54,0.00,,,0.00,Wunderground v.1.15,2013-05-02 00:22:00,
2013-05-01 19:32:00,77.3,59.9,30.01,WSW,254,3.0,3.0,55,0.00,,,0.00,Wunderground v.1.15,2013-05-02 00:32:00,
2013-05-01 19:42:00,76.6,59.7,30.02,South,184,3.0,3.0,56,0.00,,,0.00,Wunderground v.1.15,2013-05-02 00:42:00,
2013-05-01 19:52:00,75.6,59.8,30.02,South,184,1.0,1.0,58,0.00,,,0.00,Wunderground v.1.15,2013-05-02 00:52:00,
2013-05-01 20:02:00,74.9,59.6,30.02,South,184,0.0,10.0,59,0.00,,,0.00,Wunderground v.1.15,2013-05-02 01:02:00,
2013-05-01 20:12:00,73.8,59.5,30.02,South,184,0.0,0.0,61,0.00,,,0.00,Wunderground v.1.15,2013-05-02 01:12:00,
2013-05-01 20:22:00,72.9,59.6,30.02,South,184,0.0,0.0,63,0.00,,,0.00,Wunderground v.1.15,2013-05-02 01:22:00,
2013-05-01 20:32:00,72.2,59.3,30.03,South,184,0.0,0.0,64,0.00,,,0.00,Wunderground v.1.15,2013-05-02 01:32:00,
2013-05-01 20:42:00,71.7,59.3,30.03,South,184,0.0,0.0,65,0.00,,,0.00,Wunderground v.1.15,2013-05-02 01:42:00,
2013-05-01 20:52:00,71.5,59.5,30.03,South,184,1.0,2.0,66,0.00,,,0.00,Wunderground v.1.15,2013-05-02 01:52:00,
2013-05-01 21:02:00,70.9,59.4,30.04,South,184,1.0,1.0,67,0.00,,,0.00,Wunderground v.1.15,2013-05-02 02:02:00,
2013-05-01 21:12:00,70.5,59.4,30.04,South,184,0.0,1.0,68,0.00,,,0.00,Wunderground v.1.15,2013-05-02 02:12:00,
2013-05-01 21:22:00,69.8,59.2,30.04,South,184,1.0,1.0,69,0.00,,,0.00,Wunderground v.1.15,2013-05-02 02:22:00,
2013-05-01 21:32:00,69.4,59.6,30.04,South,184,0.0,0.0,71,0.00,,,0.00,Wunderground v.1.15,2013-05-02 02:32:00,
2013-05-01 21:42:00,69.9,59.7,30.05,South,184,1.0,1.0,70,0.00,,,0.00,Wunderground v.1.15,2013-05-02 02:42:00,
2013-05-01 21:52:00,69.5,59.3,30.05,South,184,0.0,1.0,70,0.00,,,0.00,Wunderground v.1.15,2013-05-02 02:52:00,
2013-05-01 22:02:00,69.9,59.7,30.05,South,184,1.0,3.0,70,0.00,,,0.00,Wunderground v.1.15,2013-05-02 03:02:00,
2013-05-01 22:12:00,69.8,60.0,30.05,South,184,1.0,1.0,71,0.00,,,0.00,Wunderground v.1.15,2013-05-02 03:12:00,
2013-05-01 22:22:00,69.6,59.8,30.05,South,184,1.0,1.0,71,0.00,,,0.00,Wunderground v.1.15,2013-05-02 03:22:00,
2013-05-01 22:32:00,69.2,59.8,30.06,South,184,0.0,1.0,72,0.00,,,0.00,Wunderground v.1.15,2013-05-02 03:32:00,
2013-05-01 22:42:00,68.8,59.8,30.05,South,184,1.0,1.0,73,0.00,,,0.00,Wunderground v.1.15,2013-05-02 03:42:00,
2013-05-01 22:52:00,68.3,59.7,30.05,South,184,0.0,0.0,74,0.00,,,0.00,Wunderground v.1.15,2013-05-02 03:52:00,
2013-05-01 23:02:00,67.9,59.7,30.05,South,184,1.0,3.0,75,0.00,,,0.00,Wunderground v.1.15,2013-05-02 04:02:00,
2013-05-01 23:12:00,67.9,59.7,30.05,South,184,2.0,2.0,75,0.00,,,0.00,Wunderground v.1.15,2013-05-02 04:12:00,
2013-05-01 23:22:00,67.6,59.8,30.06,South,184,0.0,0.0,76,0.00,,,0.00,Wunderground v.1.15,2013-05-02 04:22:00,
2013-05-01 23:32:00,67.4,59.9,30.05,South,184,1.0,3.0,77,0.00,,,0.00,Wunderground v.1.15,2013-05-02 04:32:00,
2013-05-01 23:42:00,67.3,59.8,30.05,South,184,2.0,2.0,77,0.00,,,0.00,Wunderground v.1.15,2013-05-02 04:42:00,
2013-05-01 23:52:00,67.2,59.7,30.05,South,182,2.0,2.0,77,0.00,,,0.00,Wunderground v.1.15,2013-05-02 04:52:00,